Weather History for Grosse Ile, MI

Change the Weather History Date:

Tuesday, December 24, 2013

  Actual Average (KDTW) Record (KDTW)
Temperature  
Mean Temperature 18 °F 28 °F  
Max Temperature 23 °F 34 °F 61 °F (1889)
Min Temperature 14 °F 22 °F -9 °F (1983)
Degree Days  
Heating Degree Days 46 37  
Month to date heating degree days 816  
Since 1 July heating degree days 2031  
Cooling Degree Days 0 0  
Month to date cooling degree days 0  
Year to date cooling degree days 803  
Moisture  
Dew Point 8 °F    
Average Humidity 65    
Maximum Humidity 80    
Minimum Humidity 50    
Precipitation  
Precipitation 0.00 in 0.08 in 1.95 in (1965)
Month to date precipitation 1.93  
Year to date precipitation 32.94  
Snow  
Snow 0.00 in 0.40 in 6.50 in (1886)
Month to date snowfall 7.0  
Since 1 July snowfall 8.6  
Snow Depth -    
Sea Level Pressure  
Sea Level Pressure 30.39 in    
Wind  
Wind Speed 11 mph (WNW)    
Max Wind Speed 16 mph    
Max Gust Speed 22 mph    
Visibility 10 miles    
Events Snow    
T = Trace of Precipitation, MM = Missing Value Source: NWS Daily Summary

Daily Weather History Graph

Daily Weather History Graph

Search for Another Location

Airport:

Trip Planner

Search our weather history database for the weather conditions in past years. The results will help you decide how hot, cold, wet, or windy it might be!

Date:

Astronomy

Dec. 24, 2013 Rise Set
Actual Time 7:59 AM EST 5:05 PM EST
Civil Twilight 7:27 AM EST 5:37 PM EST
Nautical Twilight 6:51 AM EST 6:12 PM EST
Astronomical Twilight 6:17 AM EST 6:46 PM EST
Moon No Moon Rise 11:46 AM EST (12/24)
Length of Visible Light 10h 10m
Length of Day
9h 06m
Waning Gibbous, 59% of the Moon is Illuminated
Dec 24
Waning Gibbous
Dec 25
Last Quarter
Jan 1
New
Jan 7
First Quarter
Jan 15
Full

Hourly Weather History & Observations

Time (EST) Temp. Windchill Dew Point Humidity Pressure Visibility Wind Dir Wind Speed Gust Speed Precip Events Conditions
12:14 AM 23.0 °F 11.7 °F 14.0 °F 68% 30.28 in 10.0 mi WSW 11.5 mph 17.3 mph N/A   Overcast
12:35 AM 21.2 °F 8.9 °F 12.2 °F 68% 30.28 in 10.0 mi WSW 12.7 mph 17.3 mph N/A   Mostly Cloudy
12:54 AM 21.2 °F 10.1 °F 12.2 °F 68% 30.27 in 10.0 mi WSW 10.4 mph 16.1 mph N/A   Scattered Clouds
1:14 AM 21.2 °F 8.3 °F 12.2 °F 68% 30.27 in 10.0 mi WSW 13.8 mph 17.3 mph N/A   Mostly Cloudy
1:34 AM 19.4 °F 8.6 °F 12.2 °F 74% 30.28 in 10.0 mi West 9.2 mph - N/A Snow Light Snow
1:54 AM 19.4 °F 7.2 °F 12.2 °F 74% 30.28 in 10.0 mi WSW 11.5 mph - N/A Snow Light Snow
2:15 AM 19.4 °F 9.5 °F 14.0 °F 80% 30.28 in 7.0 mi WSW 8.1 mph - N/A Snow Light Snow
2:34 AM 19.4 °F 7.2 °F 10.4 °F 68% 30.29 in 10.0 mi West 11.5 mph 18.4 mph N/A Snow Light Snow
2:54 AM 19.4 °F 7.2 °F 8.6 °F 63% 30.30 in 10.0 mi West 11.5 mph 20.7 mph N/A   Mostly Cloudy
3:15 AM 17.6 °F 5.7 °F 8.6 °F 68% 30.30 in 10.0 mi West 10.4 mph - N/A   Clear
3:34 AM 17.6 °F 6.4 °F 8.6 °F 68% 30.31 in 10.0 mi West 9.2 mph - N/A   Scattered Clouds
3:54 AM 17.6 °F 6.4 °F 8.6 °F 68% 30.31 in 10.0 mi West 9.2 mph - N/A   Mostly Cloudy
4:14 AM 17.6 °F 6.4 °F 8.6 °F 68% 30.31 in 10.0 mi West 9.2 mph - N/A   Overcast
4:34 AM 17.6 °F 6.4 °F 8.6 °F 68% 30.31 in 10.0 mi West 9.2 mph 16.1 mph N/A   Overcast
4:54 AM 17.6 °F 4.3 °F 8.6 °F 68% 30.31 in 10.0 mi West 12.7 mph - N/A Snow Light Snow
5:14 AM 17.6 °F 4.3 °F 10.4 °F 73% 30.31 in 10.0 mi West 12.7 mph 18.4 mph N/A Snow Light Snow
5:34 AM 17.6 °F 5.7 °F 10.4 °F 73% 30.31 in 5.0 mi West 10.4 mph - N/A Snow Light Snow
5:54 AM 17.6 °F 5.7 °F 12.2 °F 79% 30.32 in 4.0 mi West 10.4 mph 16.1 mph N/A Snow Light Snow
6:14 AM 15.8 °F 2.1 °F 10.4 °F 79% 30.32 in 4.0 mi West 12.7 mph 18.4 mph N/A Snow Light Snow
6:34 AM 15.8 °F 2.7 °F 10.4 °F 79% 30.33 in 7.0 mi West 11.5 mph 17.3 mph N/A Snow Light Snow
6:54 AM 15.8 °F 1.4 °F 10.4 °F 79% 30.34 in 10.0 mi West 13.8 mph - N/A Snow Light Snow
7:14 AM 15.8 °F 2.1 °F 8.6 °F 73% 30.34 in 10.0 mi West 12.7 mph - N/A   Overcast
7:35 AM 15.8 °F 2.7 °F 8.6 °F 73% 30.35 in 10.0 mi West 11.5 mph 19.6 mph N/A   Mostly Cloudy
7:54 AM 14.0 °F 2.0 °F 8.6 °F 79% 30.36 in 10.0 mi West 9.2 mph - N/A   Scattered Clouds
8:14 AM 14.0 °F 0.5 °F 8.6 °F 79% 30.37 in 10.0 mi West 11.5 mph - N/A   Clear
8:35 AM 14.0 °F 1.2 °F 8.6 °F 79% 30.38 in 10.0 mi West 10.4 mph - N/A   Clear
8:54 AM 14.0 °F -1.4 °F 8.6 °F 79% 30.39 in 10.0 mi West 15.0 mph 19.6 mph N/A   Scattered Clouds
9:14 AM 15.8 °F 1.4 °F 8.6 °F 73% 30.39 in 10.0 mi West 13.8 mph 18.4 mph N/A   Scattered Clouds
9:35 AM 15.8 °F 4.2 °F 8.6 °F 73% 30.40 in 10.0 mi WNW 9.2 mph - N/A Snow Light Snow
9:54 AM 15.8 °F 2.7 °F 8.6 °F 73% 30.41 in 10.0 mi WNW 11.5 mph - N/A Snow Light Snow
10:14 AM 17.6 °F 4.3 °F 8.6 °F 68% 30.41 in 10.0 mi NW 12.7 mph 19.6 mph N/A   Overcast
10:34 AM 15.8 °F 2.1 °F 8.6 °F 73% 30.42 in 10.0 mi WNW 12.7 mph - N/A   Overcast
10:54 AM 15.8 °F 2.7 °F 8.6 °F 73% 30.42 in 10.0 mi NW 11.5 mph - N/A Snow Light Snow
11:14 AM 17.6 °F 3.7 °F 6.8 °F 63% 30.42 in 10.0 mi NW 13.8 mph 17.3 mph N/A   Scattered Clouds
11:34 AM 19.4 °F 5.0 °F 6.8 °F 58% 30.42 in 10.0 mi WNW 16.1 mph 20.7 mph N/A   Clear
11:55 AM 19.4 °F 7.2 °F 6.8 °F 58% 30.42 in 10.0 mi West 11.5 mph 17.3 mph N/A   Clear
12:14 PM 19.4 °F 7.2 °F 6.8 °F 58% 30.41 in 10.0 mi NW 11.5 mph 18.4 mph N/A   Clear
12:34 PM 19.4 °F 6.0 °F 6.8 °F 58% 30.42 in 10.0 mi NW 13.8 mph 21.9 mph N/A   Clear
12:55 PM 21.2 °F 9.5 °F 6.8 °F 54% 30.41 in 10.0 mi WNW 11.5 mph 18.4 mph N/A   Clear
1:14 PM 21.2 °F 10.1 °F 6.8 °F 54% 30.41 in 10.0 mi NW 10.4 mph 18.4 mph N/A   Clear
1:34 PM 21.2 °F 7.8 °F 6.8 °F 54% 30.41 in 10.0 mi West 15.0 mph 18.4 mph N/A   Clear
1:54 PM 23.0 °F 9.6 °F 6.8 °F 50% 30.42 in 10.0 mi WNW 16.1 mph - N/A   Clear
2:14 PM 23.0 °F 10.1 °F 6.8 °F 50% 30.42 in 10.0 mi NW 15.0 mph 19.6 mph N/A   Clear
2:34 PM 21.2 °F 8.3 °F 5.0 °F 50% 30.43 in 10.0 mi NW 13.8 mph 17.3 mph N/A   Clear
2:54 PM 21.2 °F 10.1 °F 5.0 °F 50% 30.43 in 10.0 mi WNW 10.4 mph - N/A   Scattered Clouds
3:15 PM 21.2 °F 8.9 °F 6.8 °F 54% 30.45 in 10.0 mi NNW 12.7 mph 19.6 mph N/A   Scattered Clouds
3:34 PM 21.2 °F 10.1 °F 5.0 °F 50% 30.45 in 10.0 mi WNW 10.4 mph - N/A   Mostly Cloudy
3:54 PM 21.2 °F 9.5 °F 5.0 °F 50% 30.46 in 10.0 mi NW 11.5 mph 20.7 mph N/A   Scattered Clouds
4:15 PM 21.2 °F 10.1 °F 5.0 °F 50% 30.47 in 10.0 mi NW 10.4 mph 13.8 mph N/A   Scattered Clouds
4:34 PM 21.2 °F 10.9 °F 6.8 °F 54% 30.47 in 10.0 mi WNW 9.2 mph - N/A   Scattered Clouds
4:54 PM 19.4 °F 6.6 °F 5.0 °F 54% 30.48 in 10.0 mi NW 12.7 mph - N/A   Scattered Clouds
5:14 PM 19.4 °F 8.6 °F 5.0 °F 54% 30.49 in 10.0 mi NW 9.2 mph - N/A   Clear
5:34 PM 19.4 °F 11.5 °F 6.8 °F 58% 30.49 in 10.0 mi NW 5.8 mph - N/A   Clear
5:54 PM 19.4 °F 11.5 °F 6.8 °F 58% 30.50 in 10.0 mi NW 5.8 mph - N/A   Scattered Clouds
6:14 PM 19.4 °F 11.5 °F 6.8 °F 58% 30.51 in 10.0 mi WNW 5.8 mph - N/A   Overcast
6:34 PM 19.4 °F 8.6 °F 6.8 °F 58% 30.51 in 10.0 mi NW 9.2 mph - N/A   Overcast
6:54 PM 19.4 °F 7.9 °F 5.0 °F 54% 30.51 in 10.0 mi NW 10.4 mph - N/A   Overcast
7:14 PM 17.6 °F 8.2 °F 5.0 °F 58% 30.51 in 10.0 mi NW 6.9 mph - N/A   Overcast
7:34 PM 17.6 °F 9.3 °F 6.8 °F 63% 30.52 in 10.0 mi NNW 5.8 mph - N/A   Scattered Clouds
7:51 PM 17.6 °F 12.3 °F 5.0 °F 58% 30.53 in 10.0 mi NNW 3.5 mph - N/A   Clear